Location: Homewood
(41.1836°S, 175.9581°E)
Time: 10:18:47
(UTC+00:00)

Cosmos 2278 Rocket - Visible Passes

Search period start: 24 July 2024 00:00
Search period end: 03 August 2024 00:00
Orbit: 841 x 844 km, 71.0° (Epoch: 24 July)

Date Brightness Start Highest point End Pass type
(mag) Time Alt. Az. Time Alt. Az. Time Alt. Az.
24 Jul 2.6 06:57:55 10° SSW 07:03:36 64° WNW 07:09:12 10° N visible
25 Jul 2.6 06:43:10 10° SSW 06:48:51 67° WNW 06:54:28 10° N visible
26 Jul 2.6 06:28:24 10° SSW 06:34:07 70° WNW 06:39:46 10° NNE visible
27 Jul 2.5 06:13:38 10° SSW 06:19:22 73° WNW 06:25:02 10° NNE visible
28 Jul 2.5 05:58:53 10° SSW 06:04:37 77° WNW 06:10:18 10° NNE visible
29 Jul 2.4 05:44:07 10° SSW 05:49:52 80° WNW 05:55:34 10° NNE visible
29 Jul 4.6 18:52:19 10° NNE 18:57:09 30° ENE 19:02:02 10° SE visible
30 Jul 5.7 07:17:11 10° W 07:18:13 10° W 07:19:15 10° WNW visible
30 Jul 4.6 18:37:41 10° NNE 18:42:25 28° ENE 18:47:13 10° SE visible
31 Jul 5.7 07:01:55 10° W 07:03:31 11° W 07:05:07 10° WNW visible
31 Jul 4.6 18:23:02 10° NNE 18:27:42 27° ENE 18:32:24 10° SE visible
01 Aug 5.7 06:46:48 10° WSW 06:48:48 12° W 06:50:49 10° WNW visible
01 Aug 4.7 18:08:24 10° NNE 18:12:59 26° ENE 18:17:35 10° SE visible
02 Aug 5.6 06:31:45 10° WSW 06:34:05 13° W 06:36:25 10° WNW visible
02 Aug 4.7 17:53:47 10° NNE 17:58:15 24° ENE 18:02:46 10° SE visible
